Wetterstation-Oberesslingen
Wetterdaten: aktuell Samstag, 11.07.2020 19:10
Datum Zeit Temperatur BodenT. -10 Temp+5cm Luftfeuchte Bod.Feuchte Luftdruck Regen Wind Richtung Richtung Sonnenschein ET Solar Taupunkt Windchill Windben
11.07.2020 19:10 22,3 C 22,2 C 21,1 C 30 % 101 cb 1022,6 hPa 0,0 l/m 6,0 km/h (2 Bft) NW 315 60 min 0,279 mm 327 W/m 3,9 C 22,3 C 9,7 km/h (2 Bft)
11.07.2020 18:10 22,7 C 22,2 C 28,9 C 34 % 98 cb 1022,3 hPa 0,0 l/m 4,3 km/h (1 Bft) N-NO 22 60 min 0,381 mm 450 W/m 6,0 C 22,7 C 9,7 km/h (2 Bft)
11.07.2020 17:10 23,1 C 21,7 C 31,7 C 33 % 94 cb 1022,2 hPa 0,0 l/m 7,6 km/h (2 Bft) W-NW 292 60 min 0,508 mm 626 W/m 5,9 C 23,1 C 17,7 km/h (3 Bft)
11.07.2020 16:10 23,3 C 21,7 C 35,6 C 34 % 92 cb 1022,2 hPa 0,0 l/m 7,6 km/h (2 Bft) NW 315 50 min 0,508 mm 844 W/m 6,6 C 23,3 C 14,5 km/h (3 Bft)
11.07.2020 15:10 23,0 C 21,1 C 32,2 C 37 % 89 cb 1022,1 hPa 0,0 l/m 9,2 km/h (2 Bft) NW 315 55 min 0,483 mm 1049 W/m 7,5 C 23,0 C 20,9 km/h (4 Bft)
11.07.2020 14:10 21,1 C 21,1 C 25,6 C 45 % 88 cb 1022,2 hPa 0,0 l/m 9,2 km/h (2 Bft) NW 315 45 min 0,483 mm 415 W/m 8,7 C 21,1 C 19,3 km/h (3 Bft)
11.07.2020 13:10 20,0 C 21,1 C 23,3 C 51 % 88 cb 1022,1 hPa 0,0 l/m 10,8 km/h (2 Bft) NW 315 35 min 0,406 mm 373 W/m 9,6 C 20,0 C 19,3 km/h (3 Bft)
11.07.2020 12:10 19,8 C 21,1 C 24,4 C 57 % 89 cb 1022,0 hPa 0,0 l/m 7,6 km/h (2 Bft) N 360 30 min 0,279 mm 260 W/m 11,0 C 19,8 C 16,1 km/h (3 Bft)
11.07.2020 11:10 18,4 C 20,6 C 23,9 C 67 % 88 cb 1021,6 hPa 0,0 l/m 6,0 km/h (2 Bft) N 360 20 min 0,254 mm 287 W/m 12,2 C 18,4 C 12,9 km/h (3 Bft)
11.07.2020 10:10 17,2 C 20,6 C 25,0 C 76 % 89 cb 1021,2 hPa 0,0 l/m 4,3 km/h (1 Bft) N-NW 337 10 min 0,127 mm 763 W/m 12,9 C 17,2 C 9,7 km/h (2 Bft)
11.07.2020 09:10 16,3 C 21,1 C 18,3 C 78 % 90 cb 1020,8 hPa 0,0 l/m 6,0 km/h (2 Bft) NW 315 20 min 0,102 mm 178 W/m 12,5 C 16,3 C 11,3 km/h (2 Bft)
11.07.2020 08:10 15,8 C 21,1 C 16,7 C 81 % 91 cb 1020,5 hPa 0,0 l/m 6,0 km/h (2 Bft) NW 315 20 min 0,076 mm 297 W/m 12,5 C 15,8 C 14,5 km/h (3 Bft)
11.07.2020 07:10 15,1 C 21,1 C 14,4 C 84 % 91 cb 1019,6 hPa 0,2 l/m 6,0 km/h (2 Bft) NW 315 0 min 0,025 mm 21 W/m 12,4 C 15,1 C 14,5 km/h (3 Bft)
11.07.2020 06:10 15,3 C 21,1 C 14,4 C 86 % 91 cb 1019,0 hPa 0,2 l/m 4,3 km/h (1 Bft) W 270 0 min 0,000 mm 16 W/m 13,0 C 15,3 C 6,4 km/h (2 Bft)
11.07.2020 05:10 15,9 C 21,1 C 15,0 C 85 % 91 cb 1018,1 hPa 0,2 l/m 2,7 km/h (1 Bft) W-NW 292 0 min 0,000 mm 0 W/m 13,4 C 15,9 C 4,8 km/h (1 Bft)
11.07.2020 04:10 15,9 C 21,7 C 15,0 C 84 % 92 cb 1017,8 hPa 0,2 l/m 2,7 km/h (1 Bft) NW 315 0 min 0,000 mm 0 W/m 13,2 C 15,9 C 3,2 km/h (1 Bft)
11.07.2020 03:10 16,1 C 21,7 C 15,0 C 82 % 92 cb 1018,1 hPa 0,8 l/m 2,7 km/h (1 Bft) W-NW 292 0 min 0,000 mm 0 W/m 13,0 C 16,1 C 3,2 km/h (1 Bft)
11.07.2020 02:10 17,4 C 21,7 C 15,0 C 74 % 91 cb 1018,2 hPa 0,2 l/m 4,3 km/h (1 Bft) NW 315 0 min 0,025 mm 0 W/m 12,7 C 17,4 C 8,0 km/h (2 Bft)
11.07.2020 01:10 19,4 C 21,7 C 16,7 C 60 % 91 cb 1017,4 hPa 0,0 l/m 2,7 km/h (1 Bft) W-NW 292 0 min 0,025 mm 0 W/m 11,4 C 19,4 C 3,2 km/h (1 Bft)
11.07.2020 00:10 19,9 C 22,2 C 17,8 C 57 % 91 cb 1017,0 hPa 0,0 l/m 2,7 km/h (1 Bft) NW 315 0 min 0,025 mm 0 W/m 11,1 C 19,9 C 4,8 km/h (1 Bft)
10.07.2020 23:10 20,1 C 22,2 C 17,2 C 56 % 90 cb 1016,5 hPa 0,0 l/m 2,7 km/h (1 Bft) W-NW 292 0 min 0,025 mm 0 W/m 11,0 C 20,1 C 3,2 km/h (1 Bft)
10.07.2020 22:10 21,1 C 22,2 C 18,3 C 55 % 89 cb 1015,8 hPa 0,0 l/m 4,3 km/h (1 Bft) NW 315 0 min 0,051 mm 0 W/m 11,7 C 21,1 C 6,4 km/h (2 Bft)
10.07.2020 21:10 21,6 C 22,8 C 19,4 C 52 % 88 cb 1015,5 hPa 0,0 l/m 6,0 km/h (2 Bft) NW 315 0 min 0,076 mm 5 W/m 11,3 C 21,6 C 8,0 km/h (2 Bft)
10.07.2020 20:10 23,0 C 22,8 C 22,2 C 48 % 86 cb 1014,7 hPa 0,0 l/m 7,6 km/h (2 Bft) NW 315 10 min 0,152 mm 118 W/m 11,4 C 23,0 C 16,1 km/h (3 Bft)
10.07.2020 20:00 23,2 C 22,8 C 22,8 C 46 % 85 cb 1014,7 hPa 0,0 l/m 7,6 km/h (2 Bft) W-NW 292 0 min 0,152 mm 125 W/m 10,9 C 23,2 C 17,7 km/h (3 Bft)
_ Min-Zeit 07:20 09:45 07:20 16:45 20:00 20:00 - 23:20 - - - - - 19:05 07:20 03:00
Minimum _ 14,9 C 20,6 C 13,9 C 29 % 85 cb 1014,7 hPa - 1,1 km/h (1 Bft) - - - - - 3,9 C 14,9 C 0,0 km/h (0 Bft)
_ Max-Zeit 16:45 20:00 12:30 05:55 19:00 18:40 02:05 13:10 - - 20:00 16:00 12:30 05:10 16:45 18:20
Maximum _ 23,4 C 22,8 C 37,8 C 86 % 101 cb 1022,6 hPa 0,2 l/m 10,8 km/h
NW (2 Bft)
- - 5 min 0,508 mm 1172 W/m 13,4 C 23,4 C 25,7 km/h
N-NW (4 Bft)
Durchschnitt _ 19,5 C 21,6 C 21,7 C 60 % 90 cb 1019,2 hPa #1,8 l/m 5,4 km/h (2 Bft) NW - #7:45 h #3,986 mm 501 W/m 10,7 C 19,5 C 11,3 km/h (2 Bft)